"Time","Value","Approval","myLocation"
"2023-05-07 00:00",3.09621161931456,"Approved","OW448"
"2023-05-07 01:00",3.09521251114792,"Approved","OW448"
"2023-05-07 02:00",3.09521340298127,"Approved","OW448"
"2023-05-07 03:00",3.09421429481463,"Approved","OW448"
"2023-05-07 04:00",3.09321518664798,"Approved","OW448"
"2023-05-07 05:00",3.09221607848133,"Approved","OW448"
"2023-05-07 06:00",3.09021697031469,"Approved","OW448"
"2023-05-07 07:00",3.09021786214804,"Approved","OW448"
"2023-05-07 08:00",3.0892187539814,"Approved","OW448"
"2023-05-07 09:00",3.08821964581475,"Approved","OW448"
"2023-05-07 10:00",3.08822053764811,"Approved","OW448"
"2023-05-07 11:00",3.08622142948146,"Approved","OW448"
"2023-05-07 12:00",3.08622232131482,"Approved","OW448"
"2023-05-07 13:00",3.08422321314817,"Approved","OW448"
"2023-05-07 14:00",3.08522410498153,"Approved","OW448"
"2023-05-07 15:00",3.08422499681488,"Approved","OW448"
"2023-05-07 16:00",3.08422588864824,"Approved","OW448"
"2023-05-07 17:00",3.08322678048159,"Approved","OW448"
"2023-05-07 18:00",3.08222767231494,"Approved","OW448"
"2023-05-07 19:00",3.0812285641483,"Approved","OW448"
"2023-05-07 20:00",3.07922945598165,"Approved","OW448"
"2023-05-07 21:00",3.07923034781501,"Approved","OW448"
"2023-05-07 22:00",3.07723123964836,"Approved","OW448"
"2023-05-07 23:00",3.07623213148172,"Approved","OW448"
"2023-05-08 00:00",3.07623302331507,"Approved","OW448"
"2023-05-08 01:00",3.07423391514843,"Approved","OW448"
"2023-05-08 02:00",3.07323480698178,"Approved","OW448"
"2023-05-08 03:00",3.07323569881514,"Approved","OW448"
"2023-05-08 04:00",3.07323659064849,"Approved","OW448"
"2023-05-08 05:00",3.07423748248184,"Approved","OW448"
"2023-05-08 06:00",3.0752383743152,"Approved","OW448"
"2023-05-08 07:00",3.07423926614855,"Approved","OW448"
"2023-05-08 08:00",3.07424015798191,"Approved","OW448"
"2023-05-08 09:00",3.07324104981526,"Approved","OW448"
"2023-05-08 10:00",3.07324194164862,"Approved","OW448"
"2023-05-08 11:00",3.07324283348197,"Approved","OW448"
"2023-05-08 12:00",3.07224372531533,"Approved","OW448"
"2023-05-08 13:00",3.07224461714868,"Approved","OW448"
"2023-05-08 14:00",3.07124550898204,"Approved","OW448"
"2023-05-08 15:00",3.06724640081539,"Approved","OW448"
"2023-05-08 16:00",3.06524729264875,"Approved","OW448"
"2023-05-08 17:00",3.0642481844821,"Approved","OW448"
"2023-05-08 18:00",3.06324907631545,"Approved","OW448"
"2023-05-08 19:00",3.06224996814881,"Approved","OW448"
"2023-05-08 20:00",3.06125085998216,"Approved","OW448"
"2023-05-08 21:00",3.05925175181552,"Approved","OW448"
"2023-05-08 22:00",3.05925264364887,"Approved","OW448"
"2023-05-08 23:00",3.05925353548223,"Approved","OW448"
"2023-05-09 00:00",3.05925442731558,"Approved","OW448"
"2023-05-09 01:00",3.05825531914894,"Approved","OW448"
"2023-05-09 02:00",3.05725621098229,"Approved","OW448"
"2023-05-09 03:00",3.05725710281565,"Approved","OW448"
"2023-05-09 04:00",3.057257994649,"Approved","OW448"
"2023-05-09 05:00",3.05725888648235,"Approved","OW448"
"2023-05-09 06:00",3.05725977831571,"Approved","OW448"
"2023-05-09 07:00",3.05726067014906,"Approved","OW448"
"2023-05-09 08:00",3.05626156198242,"Approved","OW448"
"2023-05-09 09:00",3.05626245381577,"Approved","OW448"
"2023-05-09 10:00",3.05626334564913,"Approved","OW448"
"2023-05-09 11:00",3.05626423748248,"Approved","OW448"
"2023-05-09 12:00",3.05626512931584,"Approved","OW448"
"2023-05-09 13:00",3.05526602114919,"Approved","OW448"
"2023-05-09 14:00",3.05426691298255,"Approved","OW448"
"2023-05-09 15:00",3.0522678048159,"Approved","OW448"
"2023-05-09 16:00",3.05126869664925,"Approved","OW448"
"2023-05-09 17:00",3.04926958848261,"Approved","OW448"
"2023-05-09 18:00",3.04727048031596,"Approved","OW448"
"2023-05-09 19:00",3.04627137214932,"Approved","OW448"
"2023-05-09 20:00",3.04427226398267,"Approved","OW448"
"2023-05-09 22:00",3.04127404764938,"Approved","OW448"
"2023-05-09 23:00",3.04027493948274,"Approved","OW448"
"2023-05-10 00:00",3.03927583131609,"Approved","OW448"
"2023-05-10 01:00",3.03827672314945,"Approved","OW448"
"2023-05-10 02:00",3.0372776149828,"Approved","OW448"
"2023-05-10 03:00",3.03727850681615,"Approved","OW448"
"2023-05-10 04:00",3.03727939864951,"Approved","OW448"
"2023-05-10 05:00",3.03828029048286,"Approved","OW448"
"2023-05-10 06:00",3.03728118231622,"Approved","OW448"
"2023-05-10 07:00",3.03628207414957,"Approved","OW448"
"2023-05-10 08:00",3.03628296598293,"Approved","OW448"
"2023-05-10 09:00",3.03528385781628,"Approved","OW448"
"2023-05-10 10:00",3.03428474964964,"Approved","OW448"
"2023-05-10 11:00",3.03328564148299,"Approved","OW448"
"2023-05-10 12:00",3.03328653331635,"Approved","OW448"
"2023-05-10 13:00",3.0322874251497,"Approved","OW448"
"2023-05-10 14:00",3.02928831698306,"Approved","OW448"
"2023-05-10 15:00",3.02528920881641,"Approved","OW448"
"2023-05-10 16:00",3.02529010064976,"Approved","OW448"
"2023-05-10 17:00",3.02329099248312,"Approved","OW448"
"2023-05-10 18:00",3.02329188431647,"Approved","OW448"
"2023-05-10 19:00",3.02229277614983,"Approved","OW448"
"2023-05-10 20:00",3.02029366798318,"Approved","OW448"
"2023-05-10 21:00",3.01829455981654,"Approved","OW448"
"2023-05-10 22:00",3.01629545164989,"Approved","OW448"
"2023-05-10 23:00",3.01529634348325,"Approved","OW448"
"2023-05-11 00:00",3.0152972353166,"Approved","OW448"
"2023-05-11 01:00",3.01329812714996,"Approved","OW448"
"2023-05-11 02:00",3.01329901898331,"Approved","OW448"
"2023-05-11 03:00",3.01229991081666,"Approved","OW448"
"2023-05-11 04:00",3.01330080265002,"Approved","OW448"
"2023-05-11 05:00",3.01330169448337,"Approved","OW448"
"2023-05-11 06:00",3.01430258631673,"Approved","OW448"
"2023-05-11 07:00",3.01430347815008,"Approved","OW448"
"2023-05-11 08:00",3.01230436998344,"Approved","OW448"
"2023-05-11 09:00",3.01230526181679,"Approved","OW448"
"2023-05-11 10:00",3.01130615365015,"Approved","OW448"
"2023-05-11 11:00",3.0113070454835,"Approved","OW448"
"2023-05-11 12:00",3.01030793731686,"Approved","OW448"
"2023-05-11 13:00",3.01030882915021,"Approved","OW448"
"2023-05-11 14:00",3.00630972098356,"Approved","OW448"
"2023-05-11 15:00",3.00431061281692,"Approved","OW448"
"2023-05-11 16:00",3.00331150465027,"Approved","OW448"
"2023-05-11 17:00",3.00131239648363,"Approved","OW448"
"2023-05-11 18:00",3.00031328831698,"Approved","OW448"
"2023-05-11 19:00",2.99731418015034,"Approved","OW448"
"2023-05-11 20:00",2.99631507198369,"Approved","OW448"
"2023-05-11 21:00",2.99531596381705,"Approved","OW448"
"2023-05-11 22:00",2.9933168556504,"Approved","OW448"
"2023-05-11 23:00",2.99231774748376,"Approved","OW448"
"2023-05-12 00:00",2.99131863931711,"Approved","OW448"
"2023-05-12 01:00",2.98931953115047,"Approved","OW448"
"2023-05-12 02:00",2.98832042298382,"Approved","OW448"
"2023-05-12 03:00",2.98732131481717,"Approved","OW448"
"2023-05-12 04:00",2.98832220665053,"Approved","OW448"
"2023-05-12 05:00",2.98832309848388,"Approved","OW448"
"2023-05-12 06:00",2.98832399031724,"Approved","OW448"
"2023-05-12 07:00",2.98832488215059,"Approved","OW448"
"2023-05-12 08:00",2.98732577398395,"Approved","OW448"
"2023-05-12 09:00",2.9873266658173,"Approved","OW448"
"2023-05-12 10:00",2.98632755765066,"Approved","OW448"
"2023-05-12 11:00",2.98532844948401,"Approved","OW448"
"2023-05-12 12:00",2.98532934131737,"Approved","OW448"
"2023-05-12 13:00",2.98333023315072,"Approved","OW448"
"2023-05-12 14:00",2.98133112498407,"Approved","OW448"
"2023-05-12 15:00",2.97933201681743,"Approved","OW448"
"2023-05-12 16:00",2.97733290865078,"Approved","OW448"
"2023-05-12 17:00",2.97533380048414,"Approved","OW448"
"2023-05-12 18:00",2.97433469231749,"Approved","OW448"
"2023-05-12 19:00",2.97333558415085,"Approved","OW448"
"2023-05-12 20:00",2.9723364759842,"Approved","OW448"
"2023-05-12 21:00",2.97133736781756,"Approved","OW448"
"2023-05-12 22:00",2.97033825965091,"Approved","OW448"
"2023-05-12 23:00",2.96933915148427,"Approved","OW448"
"2023-05-13 00:00",2.97034004331762,"Approved","OW448"
"2023-05-13 01:00",2.97134093515097,"Approved","OW448"
"2023-05-13 02:00",2.96934182698433,"Approved","OW448"
"2023-05-13 03:00",2.96934271881768,"Approved","OW448"
"2023-05-13 04:00",2.96934361065104,"Approved","OW448"
"2023-05-13 05:00",2.96934450248439,"Approved","OW448"
"2023-05-13 06:00",2.96934539431775,"Approved","OW448"
"2023-05-13 07:00",2.9683462861511,"Approved","OW448"
"2023-05-13 08:00",2.96734717798446,"Approved","OW448"
"2023-05-13 09:00",2.96634806981781,"Approved","OW448"
"2023-05-13 10:00",2.96534896165117,"Approved","OW448"
"2023-05-13 11:00",2.96134985348452,"Approved","OW448"
"2023-05-13 12:00",2.96235074531787,"Approved","OW448"
"2023-05-13 13:00",2.96235163715123,"Approved","OW448"
"2023-05-13 14:00",2.95735252898458,"Approved","OW448"
"2023-05-13 15:00",2.95535342081794,"Approved","OW448"
"2023-05-13 16:00",2.95535431265129,"Approved","OW448"
"2023-05-13 17:00",2.95335520448465,"Approved","OW448"
"2023-05-13 18:00",2.952356096318,"Approved","OW448"
"2023-05-13 19:00",2.95335698815136,"Approved","OW448"
"2023-05-13 20:00",2.95335787998471,"Approved","OW448"
"2023-05-13 21:00",2.95235877181807,"Approved","OW448"
"2023-05-13 22:00",2.95135966365142,"Approved","OW448"
"2023-05-13 23:00",2.95136055548477,"Approved","OW448"
"2023-05-14 00:00",2.94936144731813,"Approved","OW448"
"2023-05-14 01:00",2.94736233915148,"Approved","OW448"
"2023-05-14 02:00",2.94636323098484,"Approved","OW448"
"2023-05-14 03:00",2.94536412281819,"Approved","OW448"
"2023-05-14 04:00",2.94536501465155,"Approved","OW448"
"2023-05-14 05:00",2.9463659064849,"Approved","OW448"
"2023-05-14 06:00",2.94636679831826,"Approved","OW448"
"2023-05-14 07:00",2.94636769015161,"Approved","OW448"
"2023-05-14 08:00",2.94436858198497,"Approved","OW448"
"2023-05-14 09:00",2.94436947381832,"Approved","OW448"
"2023-05-14 10:00",2.94337036565168,"Approved","OW448"
"2023-05-14 11:00",2.94237125748503,"Approved","OW448"
"2023-05-14 12:00",2.94037214931838,"Approved","OW448"
"2023-05-14 13:00",2.93537304115174,"Approved","OW448"
"2023-05-14 14:00",2.93137393298509,"Approved","OW448"
"2023-05-14 15:00",2.92937482481845,"Approved","OW448"
"2023-05-14 16:00",2.9273757166518,"Approved","OW448"
"2023-05-14 17:00",2.92537660848516,"Approved","OW448"
"2023-05-14 18:00",2.92337750031851,"Approved","OW448"
"2023-05-14 19:00",2.92137839215187,"Approved","OW448"
"2023-05-14 20:00",2.92037928398522,"Approved","OW448"
"2023-05-14 21:00",2.91838017581858,"Approved","OW448"
"2023-05-14 22:00",2.92038106765193,"Approved","OW448"
"2023-05-14 23:00",2.92138195948528,"Approved","OW448"
"2023-05-15 00:00",2.92038285131864,"Approved","OW448"
"2023-05-15 01:00",2.92138374315199,"Approved","OW448"
"2023-05-15 02:00",2.92038463498535,"Approved","OW448"
"2023-05-15 03:00",2.9223855268187,"Approved","OW448"
"2023-05-15 04:00",2.92438641865206,"Approved","OW448"
"2023-05-15 05:00",2.92338731048541,"Approved","OW448"
"2023-05-15 06:00",2.91838820231877,"Approved","OW448"
"2023-05-15 07:00",2.91738909415212,"Approved","OW448"
"2023-05-15 08:00",2.91538998598548,"Approved","OW448"
"2023-05-15 09:00",2.91439087781883,"Approved","OW448"
"2023-05-15 10:00",2.91339176965218,"Approved","OW448"
"2023-05-15 11:00",2.91239266148554,"Approved","OW448"
"2023-05-15 12:00",2.91039355331889,"Approved","OW448"
"2023-05-15 13:00",2.91039444515225,"Approved","OW448"
"2023-05-15 14:00",2.9093953369856,"Approved","OW448"
"2023-05-15 15:00",2.90939622881896,"Approved","OW448"
"2023-05-15 16:00",2.90939712065231,"Approved","OW448"
"2023-05-15 17:00",2.91039801248567,"Approved","OW448"
"2023-05-15 18:00",2.90739890431902,"Approved","OW448"
"2023-05-15 19:00",2.90839979615238,"Approved","OW448"
"2023-05-15 20:00",2.90940068798573,"Approved","OW448"
"2023-05-15 21:00",2.90740157981908,"Approved","OW448"
"2023-05-15 22:00",2.90640247165244,"Approved","OW448"
"2023-05-15 23:00",2.90540336348579,"Approved","OW448"
"2023-05-16 00:00",2.90340425531915,"Approved","OW448"
"2023-05-16 01:00",2.9014051471525,"Approved","OW448"
"2023-05-16 02:00",2.90040603898586,"Approved","OW448"
"2023-05-16 03:00",2.90340693081921,"Approved","OW448"
"2023-05-16 04:00",2.90340782265257,"Approved","OW448"
"2023-05-16 05:00",2.89940871448592,"Approved","OW448"
"2023-05-16 06:00",2.89740960631928,"Approved","OW448"
"2023-05-16 07:00",2.89841049815263,"Approved","OW448"
"2023-05-16 08:00",2.89841138998599,"Approved","OW448"
"2023-05-16 09:00",2.89741228181934,"Approved","OW448"
"2023-05-16 10:00",2.89641317365269,"Approved","OW448"
"2023-05-16 11:00",2.89441406548605,"Approved","OW448"
"2023-05-16 12:00",2.8964149573194,"Approved","OW448"
"2023-05-16 13:00",2.89741584915276,"Approved","OW448"
"2023-05-16 14:00",2.89641674098611,"Approved","OW448"
"2023-05-16 15:00",2.89641763281947,"Approved","OW448"
"2023-05-16 16:00",2.89541852465282,"Approved","OW448"
"2023-05-16 17:00",2.89641941648618,"Approved","OW448"
"2023-05-16 18:00",2.89742030831953,"Approved","OW448"
"2023-05-16 19:00",2.89442120015289,"Approved","OW448"
"2023-05-16 20:00",2.89342209198624,"Approved","OW448"
"2023-05-16 21:00",2.89042298381959,"Approved","OW448"
"2023-05-16 22:00",2.88542387565295,"Approved","OW448"
"2023-05-16 23:00",2.8844247674863,"Approved","OW448"
"2023-05-17 00:00",2.88542565931966,"Approved","OW448"
"2023-05-17 01:00",2.88542655115301,"Approved","OW448"
"2023-05-17 02:00",2.88642744298637,"Approved","OW448"
"2023-05-17 03:00",2.88442833481972,"Approved","OW448"
"2023-05-17 04:00",2.88642922665308,"Approved","OW448"
"2023-05-17 05:00",2.88343011848643,"Approved","OW448"
"2023-05-17 06:00",2.88143101031979,"Approved","OW448"
"2023-05-17 07:00",2.88043190215314,"Approved","OW448"
"2023-05-17 08:00",2.8794327939865,"Approved","OW448"
"2023-05-17 09:00",2.87943368581985,"Approved","OW448"
"2023-05-17 10:00",2.8774345776532,"Approved","OW448"
"2023-05-17 11:00",2.87643546948656,"Approved","OW448"
"2023-05-17 12:00",2.87543636131991,"Approved","OW448"
"2023-05-17 13:00",2.87843725315327,"Approved","OW448"
"2023-05-17 14:00",2.87443814498662,"Approved","OW448"
"2023-05-17 15:00",2.87243903681998,"Approved","OW448"
"2023-05-17 16:00",2.86943992865333,"Approved","OW448"
"2023-05-17 17:00",2.86744082048669,"Approved","OW448"
"2023-05-17 18:00",2.86544171232004,"Approved","OW448"
"2023-05-17 19:00",2.8634426041534,"Approved","OW448"
"2023-05-17 20:00",2.86344349598675,"Approved","OW448"
"2023-05-17 21:00",2.8624443878201,"Approved","OW448"
"2023-05-17 22:00",2.86044527965346,"Approved","OW448"
"2023-05-17 23:00",2.85844617148681,"Approved","OW448"
"2023-05-18 00:00",2.85844706332017,"Approved","OW448"
"2023-05-18 01:00",2.85644795515352,"Approved","OW448"
"2023-05-18 02:00",2.85644884698688,"Approved","OW448"
"2023-05-18 03:00",2.85644973882023,"Approved","OW448"
"2023-05-18 04:00",2.85745063065359,"Approved","OW448"
"2023-05-18 05:00",2.85645152248694,"Approved","OW448"
"2023-05-18 06:00",2.8544524143203,"Approved","OW448"
"2023-05-18 07:00",2.85245330615365,"Approved","OW448"
"2023-05-18 08:00",2.852454197987,"Approved","OW448"
"2023-05-18 09:00",2.85145508982036,"Approved","OW448"
"2023-05-18 10:00",2.85045598165371,"Approved","OW448"
"2023-05-18 11:00",2.84945687348707,"Approved","OW448"
"2023-05-18 12:00",2.84845776532042,"Approved","OW448"
"2023-05-18 13:00",2.84745865715378,"Approved","OW448"
"2023-05-18 14:00",2.84545954898713,"Approved","OW448"
"2023-05-18 15:00",2.84446044082049,"Approved","OW448"
"2023-05-18 16:00",2.84346133265384,"Approved","OW448"
"2023-05-18 17:00",2.8434622244872,"Approved","OW448"
"2023-05-18 18:00",2.84146311632055,"Approved","OW448"
"2023-05-18 19:00",2.8424640081539,"Approved","OW448"
"2023-05-18 20:00",2.84046489998726,"Approved","OW448"
"2023-05-18 21:00",2.83946579182061,"Approved","OW448"
"2023-05-18 22:00",2.83946668365397,"Approved","OW448"
"2023-05-18 23:00",2.84246757548732,"Approved","OW448"
"2023-05-19 00:00",2.84246846732068,"Approved","OW448"
"2023-05-19 01:00",2.84146935915403,"Approved","OW448"
"2023-05-19 02:00",2.84047025098739,"Approved","OW448"
"2023-05-19 03:00",2.84147114282074,"Approved","OW448"
"2023-05-19 04:00",2.8424720346541,"Approved","OW448"
"2023-05-19 05:00",2.84347292648745,"Approved","OW448"
"2023-05-19 06:00",2.84347381832081,"Approved","OW448"
"2023-05-19 07:00",2.84347471015416,"Approved","OW448"
"2023-05-19 08:00",2.84247560198751,"Approved","OW448"
"2023-05-19 09:00",2.84247649382087,"Approved","OW448"
"2023-05-19 10:00",2.84247738565422,"Approved","OW448"
"2023-05-19 11:00",2.84147827748758,"Approved","OW448"
"2023-05-19 12:00",2.84147916932093,"Approved","OW448"
"2023-05-19 13:00",2.84148006115429,"Approved","OW448"
"2023-05-19 14:00",2.84048095298764,"Approved","OW448"
"2023-05-19 15:00",2.838481844821,"Approved","OW448"
"2023-05-19 16:00",2.83648273665435,"Approved","OW448"
"2023-05-19 17:00",2.83548362848771,"Approved","OW448"
"2023-05-19 18:00",2.83248452032106,"Approved","OW448"
"2023-05-19 19:00",2.83148541215441,"Approved","OW448"
"2023-05-19 20:00",2.82948630398777,"Approved","OW448"
"2023-05-19 21:00",2.82848719582112,"Approved","OW448"
"2023-05-19 22:00",2.82748808765448,"Approved","OW448"
"2023-05-19 23:00",2.82548897948783,"Approved","OW448"
"2023-05-20 00:00",2.82548987132119,"Approved","OW448"
"2023-05-20 01:00",2.82349076315454,"Approved","OW448"
"2023-05-20 02:00",2.8234916549879,"Approved","OW448"
"2023-05-20 03:00",2.82449254682125,"Approved","OW448"
"2023-05-20 04:00",2.82649343865461,"Approved","OW448"
"2023-05-20 05:00",2.82749433048796,"Approved","OW448"
"2023-05-20 06:00",2.82649522232131,"Approved","OW448"
"2023-05-20 07:00",2.82649611415467,"Approved","OW448"
"2023-05-20 08:00",2.82549700598802,"Approved","OW448"
"2023-05-20 09:00",2.82449789782138,"Approved","OW448"
"2023-05-20 10:00",2.82149878965473,"Approved","OW448"
"2023-05-20 11:00",2.81949968148809,"Approved","OW448"
"2023-05-20 12:00",2.81850057332144,"Approved","OW448"
"2023-05-20 13:00",2.8185014651548,"Approved","OW448"
"2023-05-20 14:00",2.82050235698815,"Approved","OW448"
"2023-05-20 15:00",2.82050324882151,"Approved","OW448"
"2023-05-20 16:00",2.81950414065486,"Approved","OW448"
"2023-05-20 17:00",2.81850503248821,"Approved","OW448"
"2023-05-20 18:00",2.81650592432157,"Approved","OW448"
"2023-05-20 19:00",2.81550681615492,"Approved","OW448"
"2023-05-20 20:00",2.81350770798828,"Approved","OW448"
"2023-05-20 21:00",2.81250859982163,"Approved","OW448"
"2023-05-20 22:00",2.81050949165499,"Approved","OW448"
"2023-05-20 23:00",2.80951038348834,"Approved","OW448"
"2023-05-21 00:00",2.8065112753217,"Approved","OW448"
"2023-05-21 01:00",2.80551216715505,"Approved","OW448"
"2023-05-21 02:00",2.80551305898841,"Approved","OW448"
"2023-05-21 03:00",2.80551395082176,"Approved","OW448"
"2023-05-21 04:00",2.80651484265511,"Approved","OW448"
"2023-05-21 05:00",2.80651573448847,"Approved","OW448"
"2023-05-21 06:00",2.80651662632182,"Approved","OW448"
"2023-05-21 07:00",2.80551751815518,"Approved","OW448"
"2023-05-21 08:00",2.80451840998853,"Approved","OW448"
"2023-05-21 09:00",2.80451930182189,"Approved","OW448"
"2023-05-21 10:00",2.80452019365524,"Approved","OW448"
"2023-05-21 11:00",2.8045210854886,"Approved","OW448"
"2023-05-21 12:00",2.80352197732195,"Approved","OW448"
"2023-05-21 13:00",2.80352286915531,"Approved","OW448"
"2023-05-21 14:00",2.80252376098866,"Approved","OW448"
"2023-05-21 15:00",2.80152465282202,"Approved","OW448"
"2023-05-21 16:00",2.80152554465537,"Approved","OW448"
"2023-05-21 17:00",2.79952643648872,"Approved","OW448"
"2023-05-21 18:00",2.79752732832208,"Approved","OW448"
"2023-05-21 19:00",2.79552822015543,"Approved","OW448"
"2023-05-21 20:00",2.79352911198879,"Approved","OW448"
"2023-05-21 21:00",2.79253000382214,"Approved","OW448"
"2023-05-21 22:00",2.7875308956555,"Approved","OW448"
"2023-05-21 23:00",2.78553178748885,"Approved","OW448"
"2023-05-22 00:00",2.78453267932221,"Approved","OW448"
"2023-05-22 01:00",2.78353357115556,"Approved","OW448"
"2023-05-22 02:00",2.78353446298892,"Approved","OW448"
"2023-05-22 03:00",2.78353535482227,"Approved","OW448"
"2023-05-22 04:00",2.78453624665562,"Approved","OW448"
"2023-05-22 05:00",2.78353713848898,"Approved","OW448"
"2023-05-22 06:00",2.78253803032233,"Approved","OW448"
"2023-05-22 07:00",2.78153892215569,"Approved","OW448"
"2023-05-22 08:00",2.78053981398904,"Approved","OW448"
"2023-05-22 09:00",2.7795407058224,"Approved","OW448"
"2023-05-22 10:00",2.77854159765575,"Approved","OW448"
"2023-05-22 11:00",2.77854248948911,"Approved","OW448"
"2023-05-22 12:00",2.77754338132246,"Approved","OW448"
"2023-05-22 13:00",2.77654427315582,"Approved","OW448"
"2023-05-22 14:00",2.77554516498917,"Approved","OW448"
"2023-05-22 15:00",2.77454605682252,"Approved","OW448"
"2023-05-22 16:00",2.77254694865588,"Approved","OW448"
"2023-05-22 17:00",2.76954784048923,"Approved","OW448"
"2023-05-22 18:00",2.76254873232259,"Approved","OW448"
"2023-05-22 19:00",2.75654962415594,"Approved","OW448"
"2023-05-22 20:00",2.7505505159893,"Approved","OW448"
"2023-05-22 21:00",2.74455140782265,"Approved","OW448"
"2023-05-22 22:00",2.74155229965601,"Approved","OW448"
"2023-05-22 23:00",2.73755319148936,"Approved","OW448"
"2023-05-23 00:00",2.73555408332272,"Approved","OW448"
"2023-05-23 01:00",2.73355497515607,"Approved","OW448"
"2023-05-23 02:00",2.73055586698943,"Approved","OW448"
"2023-05-23 03:00",2.72955675882278,"Approved","OW448"
"2023-05-23 04:00",2.72855765065613,"Approved","OW448"
"2023-05-23 05:00",2.72655854248949,"Approved","OW448"
"2023-05-23 06:00",2.72455943432284,"Approved","OW448"
"2023-05-23 07:00",2.7235603261562,"Approved","OW448"
"2023-05-23 08:00",2.72356121798955,"Approved","OW448"
"2023-05-23 09:00",2.72156210982291,"Approved","OW448"
"2023-05-23 10:00",2.71856300165626,"Approved","OW448"
"2023-05-23 11:00",2.71756389348962,"Approved","OW448"
"2023-05-23 12:00",2.71756478532297,"Approved","OW448"
"2023-05-23 13:00",2.71556567715633,"Approved","OW448"
"2023-05-23 14:00",2.71456656898968,"Approved","OW448"
"2023-05-23 15:00",2.71456746082304,"Approved","OW448"
"2023-05-23 16:00",2.71356835265639,"Approved","OW448"
"2023-05-23 17:00",2.71256924448974,"Approved","OW448"
"2023-05-23 18:00",2.7105701363231,"Approved","OW448"
"2023-05-23 19:00",2.70857102815645,"Approved","OW448"
"2023-05-23 20:00",2.70757191998981,"Approved","OW448"
"2023-05-23 21:00",2.70457281182316,"Approved","OW448"
"2023-05-23 22:00",2.70357370365652,"Approved","OW448"
"2023-05-23 23:00",2.70257459548987,"Approved","OW448"
"2023-05-24 00:00",2.70057548732323,"Approved","OW448"
"2023-05-24 01:00",2.70057637915658,"Approved","OW448"
"2023-05-24 02:00",2.69857727098994,"Approved","OW448"
"2023-05-24 03:00",2.69857816282329,"Approved","OW448"
"2023-05-24 04:00",2.69857905465664,"Approved","OW448"
"2023-05-24 05:00",2.69957994649,"Approved","OW448"
"2023-05-24 06:00",2.69858083832335,"Approved","OW448"
"2023-05-24 07:00",2.69858173015671,"Approved","OW448"
"2023-05-24 08:00",2.69658262199006,"Approved","OW448"
"2023-05-24 09:00",2.69658351382342,"Approved","OW448"
"2023-05-24 10:00",2.69558440565677,"Approved","OW448"
"2023-05-24 11:00",2.69558529749013,"Approved","OW448"
"2023-05-24 12:00",2.69458618932348,"Approved","OW448"
"2023-05-24 13:00",2.69458708115684,"Approved","OW448"
"2023-05-24 14:00",2.69358797299019,"Approved","OW448"
"2023-05-24 15:00",2.69058886482354,"Approved","OW448"
"2023-05-24 16:00",2.6905897566569,"Approved","OW448"
"2023-05-24 17:00",2.68759064849025,"Approved","OW448"
"2023-05-24 18:00",2.68759154032361,"Approved","OW448"
"2023-05-24 19:00",2.68559243215696,"Approved","OW448"
"2023-05-24 20:00",2.68359332399032,"Approved","OW448"